User: anonymous   Login
Location: Unspecified
(0.0000°N, 0.0000°E)
Time: 11:14:07
(UTC+00:00)
Language:

CUTE 1.7 + AOD 2 - Orbit

View from above orbital plane
View from above orbital plane
View from above satellite
View from above satellite

Ground track
Ground track

The orbit data is extracted from the following two-line orbital elements,

1 32785U 08021C   19347.84583007 +.00000188 +00000-0 +25901-4 0  9993
2 32785 097.5590 339.2513 0013977 037.5777 322.6415 14.88388345630117
Epoch (UTC): 13 December 2019 20:17:59
Eccentricity: 0.0013977
inclination: 97.5590°
perigee height: 593 km
apogee height: 613 km
right ascension of ascending node: 339.2513°
argument of perigee: 37.5777°
revolutions per day: 14.88388345
mean anomaly at epoch: 322.6415°
orbit number at epoch: 63011

The dashed part of the orbit path shows where the satellite is in the earth's shadow,  

DLR